CDT,Max TemperatureF,Mean TemperatureF,Min TemperatureF,Max Dew PointF,MeanDew PointF,Min DewpointF,Max Humidity, Mean Humidity, Min Humidity, Max Sea Level PressureIn, Mean Sea Level PressureIn, Min Sea Level PressureIn, Max VisibilityMiles, Mean VisibilityMiles, Min VisibilityMiles, Max Wind SpeedMPH, Mean Wind SpeedMPH, Max Gust SpeedMPH,PrecipitationIn, CloudCover, Events, WindDirDegrees
2013-9-1,71,63,55,65,60,55,100,86,60,29.91,29.79,29.73,10,9,2,15,6,22,0.12,6,Rain,281
2013-9-2,60,51,42,54,48,42,100,87,62,30.04,30.00,29.91,10,8,0,14,8,21,0.02,7,Fog-Rain,345
2013-9-3,71,54,37,56,46,37,100,78,42,30.07,30.02,29.96,10,7,0,14,3,17,0.00,3,Fog,253
2013-9-4,69,56,44,58,51,44,100,78,42,30.21,30.11,29.99,10,10,2,10,5,,0.00,2,,345
2013-9-5,70,54,38,52,44,38,100,73,33,30.32,30.26,30.20,10,8,0,7,1,,0.00,1,Fog,217
2013-9-6,78,64,50,67,58,48,100,82,62,30.21,30.07,29.94,10,10,7,9,3,,0.00,4,Rain,213
2013-9-7,83,66,51,66,61,46,100,78,52,30.13,29.99,29.91,10,9,0,16,6,25,0.00,3,Fog,9
2013-9-8,70,56,42,52,47,42,100,71,41,30.17,30.10,30.00,10,9,1,10,4,24,0.01,1,Rain,141
2013-9-9,77,66,55,71,63,51,100,95,77,30.01,29.84,29.71,10,6,0,9,2,18,0.08,7,Fog-Rain,163
2013-9-10,78,70,61,70,65,60,100,88,56,29.95,29.87,29.75,10,7,0,14,5,20,0.02,4,Fog-Rain,246
2013-9-11,77,64,50,63,57,51,100,81,51,30.02,29.98,29.94,10,9,0,14,6,29,0.00,2,Fog-Rain,266
2013-9-12,61,53,43,54,47,41,100,78,52,30.20,30.10,30.00,10,10,1,16,6,24,0.00,6,Rain,341
2013-9-13,61,47,34,44,40,34,100,78,43,30.26,30.20,30.11,10,9,0,12,3,16,0.00,2,Fog,360
2013-9-14,67,50,34,54,44,35,100,75,44,30.12,30.04,29.96,10,9,0,17,3,23,0.05,2,Fog-Rain,230
2013-9-15,55,46,36,54,48,36,100,94,77,30.31,30.11,29.97,10,9,2,15,3,18,0.18,7,Rain,8
2013-9-16,60,44,28,43,36,29,100,77,36,30.44,30.37,30.32,10,8,0,7,1,,0.00,1,Fog,117
2013-9-17,64,48,31,50,41,32,100,74,43,30.34,30.22,30.07,10,9,0,13,4,18,0.00,1,Fog-Rain,179
2013-9-18,64,59,54,64,59,50,100,98,82,30.06,29.94,29.86,10,4,1,9,5,,0.02,8,Rain,178
2013-9-19,77,69,61,69,65,62,100,95,67,29.86,29.79,29.71,10,6,0,25,3,36,0.20,6,Fog-Rain,194
2013-9-20,68,57,47,64,56,48,100,90,58,29.81,29.74,29.68,10,9,2,15,6,22,0.07,7,Rain,281
2013-9-21,48,40,30,47,40,31,100,87,64,29.99,29.89,29.81,10,8,0,16,7,22,0.03,6,Fog-Rain,319
2013-9-22,58,44,30,41,37,31,100,76,46,30.09,30.04,29.99,10,9,0,8,2,,0.00,4,Fog,123
2013-9-23,65,51,37,47,43,38,100,78,49,30.12,30.07,30.04,10,10,10,9,5,,0.00,0,,164
2013-9-24,68,52,37,55,46,37,100,83,41,30.10,30.05,30.00,10,6,0,6,2,,0.00,3,Fog,159
2013-9-25,69,54,39,54,45,40,100,82,36,30.05,30.02,29.98,10,5,0,8,1,,0.00,4,Fog,119
2013-9-26,71,54,37,56,46,37,100,77,35,30.09,30.06,30.03,10,7,0,10,3,17,0.00,3,Fog,165
2013-9-27,76,62,48,52,49,46,98,64,36,30.12,30.07,30.00,10,10,10,13,6,25,0.00,0,,175
2013-9-28,73,62,50,62,50,44,99,73,50,30.03,29.88,29.72,10,10,2,18,9,36,0.29,4,Rain,189
2013-9-29,66,53,40,50,42,35,100,70,32,30.00,29.95,29.89,10,9,0,13,6,18,0.02,1,Fog,226
2013-9-30,69,58,47,44,42,39,84,58,33,29.94,29.81,29.73,10,10,10,17,6,31,0.00,0,,191